カタログに戻る

SL-14 R/B

運用中LEO
NORAD 23412·ROCKET BODY·🇷🇺 Russia

打ち上げ Nov 29, 1994 から Plesetsk Cosmodrome

Loading…

次のパス (今後24時間)

TLE

最新Source: Space-Track

元期: Sep 14, 2026, 21:49 UTC

1 23412U 94078B   26257.90969774 -.00000026  00000-0 -66794-4 0  9999
2 23412  73.6174  39.1347 0043473 175.1022   1.4217 12.41009468440501

AllMySatでSL-14 R/Bをリアルタイム追跡

Download on the App Store